Air Quality Table

TIMESTAMP NO2 SO2 O3 PM10 PM2.5 CO TEMP HUM AIRPRES WS WD NO BENZENE
2023-01-30 01:00 0.63 µg/m3 0.77 µg/m3 62.87 µg/m3 9.75 µg/m3 5 µg/m3 0.3 mg/m3 12.88 °C 70.51 % 1,017.82 mbar 5.93 m/s 42.37 Deg 0.67 µg/m3 1.65 µg/m3
2023-01-30 00:00 2.2 µg/m3 0.53 µg/m3 60.64 µg/m3 12.7 µg/m3 6.57 µg/m3 0.32 mg/m3 13.52 °C 66.75 % 1,018.00 mbar 4.95 m/s 39.88 Deg 1.5 µg/m3 1.66 µg/m3
2023-01-29 23:00 1.1 µg/m3 0.37 µg/m3 63.54 µg/m3 12.42 µg/m3 6.53 µg/m3 0.34 mg/m3 13.5 °C 68.83 % 1,017.85 mbar 5.37 m/s 53.83 Deg 0.93 µg/m3 1.68 µg/m3
2023-01-29 22:00 2.9 µg/m3 0.66 µg/m3 60.19 µg/m3 13.06 µg/m3 6.61 µg/m3 0.37 mg/m3 13.33 °C 71.12 % 1,017.75 mbar 5.16 m/s 44.04 Deg 1.11 µg/m3 1.84 µg/m3
2023-01-29 21:00 15.63 µg/m3 0.74 µg/m3 43.32 µg/m3 13.01 µg/m3 6.28 µg/m3 0.4 mg/m3 10.47 °C 84.51 % 1,017.57 mbar 1.47 m/s 237.67 Deg 4.69 µg/m3 1.99 µg/m3
2023-01-29 20:00 28.66 µg/m3 0.64 µg/m3 37.55 µg/m3 9.15 µg/m3 4.91 µg/m3 0.4 mg/m3 10.28 °C 87.24 % 1,017.49 mbar 1.08 m/s 146.46 Deg 8.52 µg/m3 2.39 µg/m3
2023-01-29 19:00 32.6 µg/m3 0.73 µg/m3 34.76 µg/m3 9.35 µg/m3 4.68 µg/m3 0.39 mg/m3 10.3 °C 87.15 % 1,017.25 mbar 0.99 m/s 137.45 Deg 11.06 µg/m3 2.73 µg/m3
2023-01-29 18:00 13.4 µg/m3 0.42 µg/m3 51.47 µg/m3 13.62 µg/m3 4.77 µg/m3 0.33 mg/m3 11.77 °C 76.72 % 1,016.67 mbar 3.05 m/s 174.29 Deg 5.38 µg/m3 1.81 µg/m3
2023-01-29 17:00 8.38 µg/m3 0.5 µg/m3 56.8 µg/m3 11.23 µg/m3 4.17 µg/m3 0.31 mg/m3 12.7 °C 73.3 % 1,016.09 mbar 5.11 m/s 59.21 Deg 4.77 µg/m3 1.89 µg/m3
2023-01-29 16:00 8.42 µg/m3 0.9 µg/m3 56.36 µg/m3 12.98 µg/m3 4.43 µg/m3 0.31 mg/m3 12.92 °C 73.67 % 1,015.91 mbar 5.17 m/s 46.23 Deg 5.09 µg/m3 1.87 µg/m3
2023-01-29 15:00 5.62 µg/m3 0.54 µg/m3 59.91 µg/m3 11.87 µg/m3 4.68 µg/m3 0.32 mg/m3 12.99 °C 71.52 % 1,015.71 mbar 4.91 m/s 60.68 Deg 3.62 µg/m3 1.73 µg/m3
2023-01-29 14:00 7.89 µg/m3 0.67 µg/m3 58.59 µg/m3 12.69 µg/m3 5.12 µg/m3 0.34 mg/m3 13.05 °C 70.63 % 1,015.91 mbar 4.5 m/s 57.78 Deg 4.54 µg/m3 3.15 µg/m3
2023-01-29 13:00 8.04 µg/m3 0.89 µg/m3 57.21 µg/m3 12.79 µg/m3 4.38 µg/m3 0.34 mg/m3 12.97 °C 68.65 % 1,016.55 mbar 4.07 m/s 54.45 Deg 4.18 µg/m3 1.84 µg/m3
2023-01-29 12:00 7.75 µg/m3 0.82 µg/m3 58.33 µg/m3 10.58 µg/m3 3.36 µg/m3 0.33 mg/m3 12.83 °C 66.14 % 1,017.15 mbar 3.91 m/s 55.43 Deg 3.71 µg/m3 2.15 µg/m3
2023-01-29 11:00 8.72 µg/m3 0.61 µg/m3 54.02 µg/m3 7.66 µg/m3 2.98 µg/m3 0.34 mg/m3 12.68 °C 70.66 % 1,017.17 mbar 3.58 m/s 58.25 Deg 3.88 µg/m3 1.52 µg/m3
2023-01-29 10:00 7.56 µg/m3 0.77 µg/m3 57.75 µg/m3 3.36 µg/m3 2.16 µg/m3 0.35 mg/m3 12.89 °C 66.56 % 1,016.52 mbar 4.5 m/s 47.77 Deg 3.28 µg/m3 1.21 µg/m3
2023-01-29 09:00 15.46 µg/m3 0.53 µg/m3 49.62 µg/m3 3.7 µg/m3 2.19 µg/m3 0.37 mg/m3 12.19 °C 69.91 % 1,015.88 mbar 2.62 m/s 117.68 Deg 9.39 µg/m3 1.84 µg/m3
2023-01-29 08:00 22.19 µg/m3 0.61 µg/m3 36.98 µg/m3 5.96 µg/m3 2.82 µg/m3 0.32 mg/m3 10.52 °C 76.84 % 1,015.28 mbar 0.75 m/s 237.04 Deg 11.58 µg/m3 1.31 µg/m3
2023-01-29 07:00 8.97 µg/m3 0.55 µg/m3 55.37 µg/m3 5.4 µg/m3 2.28 µg/m3 0.27 mg/m3 10.5 °C 77.46 % 1,014.95 mbar 1.4 m/s 274.21 Deg 3.27 µg/m3 1.21 µg/m3
2023-01-29 06:00 6.42 µg/m3 0.44 µg/m3 56.28 µg/m3 4.35 µg/m3 2.13 µg/m3 0.28 mg/m3 10.53 °C 76.66 % 1,014.72 mbar 2.21 m/s 290.12 Deg 1.2 µg/m3 1.12 µg/m3
2023-01-29 05:00 10.23 µg/m3 0.7 µg/m3 51.16 µg/m3 3.55 µg/m3 2.06 µg/m3 0.29 mg/m3 10.11 °C 79.68 % 1,014.48 mbar 1.67 m/s 238.4 Deg 2.4 µg/m3 1.23 µg/m3
2023-01-29 04:00 10.5 µg/m3 0.37 µg/m3 55.08 µg/m3 3.06 µg/m3 1.99 µg/m3 0.31 mg/m3 10.48 °C 78.33 % 1,014.24 mbar 1.23 m/s 261.72 Deg 1.19 µg/m3 1.18 µg/m3
2023-01-29 03:00 31.33 µg/m3 0.57 µg/m3 52.12 µg/m3 4.14 µg/m3 2.27 µg/m3 0.21 mg/m3 10.52 °C 78.39 % 1,014.19 mbar 1.07 m/s 260.98 Deg 1.41 µg/m3 1.31 µg/m3
2023-01-29 02:00 8.57 µg/m3 0.36 µg/m3 53.92 µg/m3 4.52 µg/m3 2.42 µg/m3 0.26 mg/m3 10.89 °C 77.45 % 1,014.09 mbar 1.39 m/s 255.77 Deg 1.82 µg/m3 1.23 µg/m3
2023-01-29 01:00 7.9 µg/m3 0.41 µg/m3 49.94 µg/m3 4.7 µg/m3 2.75 µg/m3 0.27 mg/m3 10.54 °C 78.81 % 1,013.80 mbar 1.49 m/s 281.95 Deg 1.83 µg/m3 1.21 µg/m3
2023-01-29 00:00 1.24 µg/m3 0.49 µg/m3 69.08 µg/m3 4.51 µg/m3 1.76 µg/m3 0.28 mg/m3 10.91 °C 71.89 % 1,013.74 mbar 2.88 m/s 120.32 Deg 0.98 µg/m3 1.05 µg/m3
2023-01-28 23:00 5.33 µg/m3 0.49 µg/m3 60.44 µg/m3 10.02 µg/m3 3.68 µg/m3 0.32 mg/m3 10.14 °C 82.75 % 1,013.96 mbar 2.7 m/s 282.03 Deg 1.95 µg/m3 1.24 µg/m3
2023-01-28 22:00 8.77 µg/m3 0.41 µg/m3 53.56 µg/m3 11.34 µg/m3 4.05 µg/m3 0.38 mg/m3 9.99 °C 83.48 % 1,013.36 mbar 2.73 m/s 256.08 Deg 2.19 µg/m3 1.5 µg/m3
2023-01-28 21:00 28.59 µg/m3 0.68 µg/m3 28.6 µg/m3 8.15 µg/m3 3.61 µg/m3 0.41 mg/m3 9.41 °C 86.54 % 1,012.83 mbar 1.49 m/s 221.78 Deg 16.88 µg/m3 2.12 µg/m3
2023-01-28 20:00 33.63 µg/m3 0.76 µg/m3 27.33 µg/m3 6.06 µg/m3 3.21 µg/m3 0.37 mg/m3 9.22 °C 86.64 % 1,012.43 mbar 1.18 m/s 212.73 Deg 16.34 µg/m3 2.39 µg/m3
2023-01-28 19:00 21.32 µg/m3 0.6 µg/m3 46.42 µg/m3 8.09 µg/m3 3.53 µg/m3 0.33 mg/m3 9.47 °C 84.42 % 1,012.37 mbar 2.35 m/s 257.02 Deg 11.09 µg/m3 1.4 µg/m3
2023-01-28 18:00 19.9 µg/m3 0.74 µg/m3 52.32 µg/m3 4.73 µg/m3 2.25 µg/m3 0.31 mg/m3 10.99 °C 68.08 % 1,011.57 mbar 1.87 m/s 274.47 Deg 7.57 µg/m3 1.33 µg/m3
2023-01-28 17:00 9.48 µg/m3 0.63 µg/m3 62.35 µg/m3 5.89 µg/m3 2.56 µg/m3 0.31 mg/m3 11.11 °C 73.68 % 1,011.25 mbar 3.45 m/s 294.43 Deg 4.33 µg/m3 1.21 µg/m3
2023-01-28 16:00 28.64 µg/m3 0.75 µg/m3 36.72 µg/m3 7.03 µg/m3 3.77 µg/m3 0.34 mg/m3 10.37 °C 83.63 % 1,010.69 mbar 2.46 m/s 212.84 Deg 14.12 µg/m3 1.91 µg/m3
2023-01-28 15:00 25.92 µg/m3 0.67 µg/m3 39.09 µg/m3 6.38 µg/m3 3.19 µg/m3 0.32 mg/m3 10.4 °C 82.89 % 1,010.32 mbar 2.68 m/s 234.22 Deg 14.03 µg/m3 1.61 µg/m3
2023-01-28 14:00 26.11 µg/m3 0.47 µg/m3 40.01 µg/m3 8.8 µg/m3 3.25 µg/m3 0.31 mg/m3 10.33 °C 80.55 % 1,010.41 mbar 2.4 m/s 240.28 Deg 14.41 µg/m3 1.24 µg/m3
2023-01-28 13:00 9.54 µg/m3 0.6 µg/m3 59.07 µg/m3 10.31 µg/m3 2.75 µg/m3 0.31 mg/m3 12.84 °C 65.42 % 1,010.59 mbar 2.75 m/s 272.55 Deg 4.15 µg/m3 1.21 µg/m3
2023-01-28 12:00 24.1 µg/m3 0.83 µg/m3 44.54 µg/m3 6.41 µg/m3 2.5 µg/m3 0.33 mg/m3 11.6 °C 75.04 % 1,011.03 mbar 1.36 m/s 177.9 Deg 15.55 µg/m3 1.54 µg/m3
2023-01-28 11:00 13.01 µg/m3 0.63 µg/m3 57.09 µg/m3 7.23 µg/m3 2.34 µg/m3 0.31 mg/m3 12.26 °C 70.36 % 1,011.28 mbar 2.24 m/s 329.58 Deg 6.13 µg/m3 1.45 µg/m3
2023-01-28 10:00 15.69 µg/m3 0.63 µg/m3 51.55 µg/m3 7.23 µg/m3 2.52 µg/m3 0.32 mg/m3 10.91 °C 78.87 % 1,011.01 mbar 1.67 m/s 294.16 Deg 5.75 µg/m3 1.36 µg/m3
2023-01-28 09:00 22.95 µg/m3 0.5 µg/m3 47.49 µg/m3 6.65 µg/m3 2.29 µg/m3 0.34 mg/m3 9.45 °C 79.13 % 1,010.32 mbar 1.94 m/s 289.14 Deg 12.36 µg/m3 1.31 µg/m3
2023-01-28 08:00 23.05 µg/m3 0.59 µg/m3 43.51 µg/m3 6.34 µg/m3 3.05 µg/m3 0.34 mg/m3 10.7 °C 74.84 % 1,009.90 mbar 2.79 m/s 259.8 Deg 11.69 µg/m3 1.54 µg/m3
2023-01-28 07:00 30.86 µg/m3 0.79 µg/m3 33.86 µg/m3 5.84 µg/m3 2.71 µg/m3 0.32 mg/m3 9.93 °C 75.93 % 1,009.58 mbar 1.62 m/s 236.88 Deg 21.15 µg/m3 2.34 µg/m3
2023-01-28 06:00 24.4 µg/m3 0.72 µg/m3 41.59 µg/m3 6.38 µg/m3 2.43 µg/m3 0.26 mg/m3 9.68 °C 77.56 % 1,009.46 mbar 1.32 m/s 216.25 Deg 17.4 µg/m3 1.36 µg/m3
2023-01-28 05:00 5.29 µg/m3 0.25 µg/m3 63.22 µg/m3 3.59 µg/m3 1.49 µg/m3 0.23 mg/m3 10.25 °C 72.95 % 1,009.23 mbar 2.98 m/s 253.91 Deg 0.8 µg/m3 1 µg/m3
2023-01-28 04:00 7.7 µg/m3 0.28 µg/m3 68.32 µg/m3 5.15 µg/m3 1.81 µg/m3 0.23 mg/m3 10.4 °C 73.91 % 1,009.35 mbar 3.48 m/s 263.33 Deg 0.34 µg/m3 0.94 µg/m3
2023-01-28 03:00 27.65 µg/m3 0.5 µg/m3 64.74 µg/m3 6.16 µg/m3 2.32 µg/m3 0.17 mg/m3 9.94 °C 78.21 % 1,009.44 mbar 3.18 m/s 261.72 Deg 0.82 µg/m3 1 µg/m3
2023-01-28 02:00 3.84 µg/m3 0.32 µg/m3 66.52 µg/m3 6.24 µg/m3 2.76 µg/m3 0.26 mg/m3 11.07 °C 76.72 % 1,009.23 mbar 3.47 m/s 269.85 Deg 0.83 µg/m3 1.23 µg/m3
2023-01-28 01:00 4.74 µg/m3 0.36 µg/m3 61.13 µg/m3 12.63 µg/m3 4.77 µg/m3 0.29 mg/m3 11.01 °C 77.58 % 1,009.36 mbar 1.98 m/s 275.49 Deg 1.73 µg/m3 1.23 µg/m3
2023-01-28 00:00 6.9 µg/m3 0.49 µg/m3 59.04 µg/m3 6.04 µg/m3 3.04 µg/m3 0.29 mg/m3 11.81 °C 72.93 % 1,009.41 mbar 1.68 m/s 279.39 Deg 1.2 µg/m3 1.52 µg/m3
2023-01-27 23:00 6.79 µg/m3 0.36 µg/m3 55.81 µg/m3 8.59 µg/m3 3.91 µg/m3 0.29 mg/m3 11.61 °C 77.08 % 1,009.36 mbar 1.55 m/s 265.43 Deg 2.23 µg/m3 1.6 µg/m3
2023-01-27 22:00 5.45 µg/m3 0.4 µg/m3 56.14 µg/m3 10.97 µg/m3 4.23 µg/m3 0.28 mg/m3 11.22 °C 79.39 % 1,009.15 mbar 1.29 m/s 265.6 Deg 1.49 µg/m3 1.23 µg/m3
2023-01-27 21:00 5.58 µg/m3 0.39 µg/m3 58.15 µg/m3 11.9 µg/m3 5.15 µg/m3 0.28 mg/m3 11.86 °C 79.49 % 1,009.17 mbar 3.18 m/s 258.41 Deg 1.66 µg/m3 1.42 µg/m3
2023-01-27 20:00 9.47 µg/m3 0.31 µg/m3 54.36 µg/m3 12.31 µg/m3 5.2 µg/m3 0.28 mg/m3 12.35 °C 74.52 % 1,008.59 mbar 2.06 m/s 300.93 Deg 2.78 µg/m3 1.44 µg/m3
2023-01-27 19:00 8.38 µg/m3 0.38 µg/m3 56.18 µg/m3 13.9 µg/m3 4.97 µg/m3 0.26 mg/m3 12.99 °C 69.47 % 1,007.86 mbar 2.71 m/s 291.59 Deg 3.43 µg/m3 1.28 µg/m3
2023-01-27 18:00 10.53 µg/m3 0.52 µg/m3 55.79 µg/m3 15.74 µg/m3 4.89 µg/m3 0.26 mg/m3 12.98 °C 70.35 % 1,007.21 mbar 3.19 m/s 298.95 Deg 4.37 µg/m3 1.39 µg/m3
2023-01-27 17:00 11.11 µg/m3 0.58 µg/m3 57.34 µg/m3 14.68 µg/m3 4.49 µg/m3 0.25 mg/m3 12.93 °C 73.24 % 1,006.77 mbar 3.49 m/s 286.61 Deg 5.56 µg/m3 1.18 µg/m3
2023-01-27 16:00 6.44 µg/m3 0.47 µg/m3 61.33 µg/m3 7.86 µg/m3 3.39 µg/m3 0.24 mg/m3 13.1 °C 71.27 % 1,006.04 mbar 3.79 m/s 295.78 Deg 2.99 µg/m3 1.21 µg/m3
2023-01-27 15:00 6.17 µg/m3 0.51 µg/m3 59.22 µg/m3 10.53 µg/m3 3.88 µg/m3 0.24 mg/m3 13.36 °C 69.55 % 1,005.35 mbar 4 m/s 321.46 Deg 3.35 µg/m3 1.18 µg/m3
2023-01-27 14:00 6.43 µg/m3 0.55 µg/m3 63.36 µg/m3 9.04 µg/m3 2.95 µg/m3 0.24 mg/m3 13.53 °C 66.08 % 1,004.95 mbar 4.29 m/s 326.63 Deg 4.01 µg/m3 1.03 µg/m3
2023-01-27 13:00 8.07 µg/m3 0.42 µg/m3 57.61 µg/m3 12.63 µg/m3 3.26 µg/m3 0.24 mg/m3 13.01 °C 70.74 % 1,004.91 mbar 4.06 m/s 311.44 Deg 4.08 µg/m3 1.08 µg/m3
2023-01-27 12:00 11.97 µg/m3 0.4 µg/m3 56.35 µg/m3 15.89 µg/m3 4.07 µg/m3 0.25 mg/m3 12.87 °C 71.68 % 1,005.19 mbar 3.05 m/s 312.67 Deg 7.17 µg/m3 1.18 µg/m3
2023-01-27 11:00 8.72 µg/m3 0.45 µg/m3 60.21 µg/m3 8.61 µg/m3 2.64 µg/m3 0.26 mg/m3 12.66 °C 72.53 % 1,004.86 mbar 3.46 m/s 339.98 Deg 4.82 µg/m3 1.03 µg/m3
2023-01-27 10:00 11.78 µg/m3 0.4 µg/m3 56.34 µg/m3 6.44 µg/m3 2.49 µg/m3 0.25 mg/m3 12.35 °C 75.84 % 1,004.14 mbar 3.06 m/s 347.36 Deg 4.79 µg/m3 1.05 µg/m3
2023-01-27 09:00 10.94 µg/m3 0.55 µg/m3 58.87 µg/m3 8.68 µg/m3 3.13 µg/m3 0.24 mg/m3 12.23 °C 77.47 % 1,003.27 mbar 3.39 m/s 338.23 Deg 4.54 µg/m3 0.94 µg/m3
2023-01-27 08:00 7.55 µg/m3 0.44 µg/m3 63 µg/m3 9.28 µg/m3 3.97 µg/m3 0.24 mg/m3 12.11 °C 76.67 % 1,002.52 mbar 4.96 m/s 285.67 Deg 3.32 µg/m3 0.89 µg/m3
2023-01-27 07:00 7.6 µg/m3 0.4 µg/m3 63.61 µg/m3 7.53 µg/m3 3.43 µg/m3 0.25 mg/m3 11.2 °C 80.3 % 1,002.36 mbar 5.41 m/s 287.92 Deg 3.71 µg/m3 0.89 µg/m3
2023-01-27 06:00 13.43 µg/m3 0.48 µg/m3 53.77 µg/m3 5.49 µg/m3 2.58 µg/m3 0.26 mg/m3 9.9 °C 87.46 % 1,002.03 mbar 2.74 m/s 255.26 Deg 3.66 µg/m3 1.1 µg/m3
2023-01-27 05:00 7.27 µg/m3 0.45 µg/m3 61.53 µg/m3 7.93 µg/m3 3.05 µg/m3 0.24 mg/m3 9.59 °C 87.3 % 1,002.17 mbar 2.38 m/s 190.2 Deg 1.83 µg/m3 1 µg/m3
2023-01-27 04:00 7.63 µg/m3 0.4 µg/m3 65.42 µg/m3 8.11 µg/m3 3.73 µg/m3 0.23 mg/m3 10.74 °C 84.52 % 1,002.43 mbar 5.15 m/s 255.92 Deg 0.42 µg/m3 1.08 µg/m3
2023-01-27 03:00 25.3 µg/m3 0.45 µg/m3 64.32 µg/m3 5.23 µg/m3 2.5 µg/m3 0.17 mg/m3 11.13 °C 78.79 % 1,003.08 mbar 5.63 m/s 257.68 Deg 0.43 µg/m3 1.05 µg/m3
2023-01-27 02:00 1.97 µg/m3 0.41 µg/m3 64.38 µg/m3 6.69 µg/m3 3.47 µg/m3 0.28 mg/m3 11.56 °C 73.05 % 1,003.78 mbar 5.74 m/s 260.29 Deg 0.31 µg/m3 1.12 µg/m3
2023-01-27 01:00 4.74 µg/m3 0.52 µg/m3 60.05 µg/m3 6.63 µg/m3 3.22 µg/m3 0.32 mg/m3 10.72 °C 73.46 % 1,004.20 mbar 2.76 m/s 235.73 Deg 1.67 µg/m3 1.23 µg/m3
2023-01-27 00:00 7.94 µg/m3 0.64 µg/m3 54.23 µg/m3 6.01 µg/m3 2.85 µg/m3 0.35 mg/m3 9.8 °C 77.18 % 1,004.73 mbar 1.79 m/s 235.82 Deg 2.43 µg/m3 1.73 µg/m3
2023-01-26 23:00 12.54 µg/m3 0.54 µg/m3 49.26 µg/m3 4.92 µg/m3 2.05 µg/m3 0.37 mg/m3 9.61 °C 77.65 % 1,005.46 mbar 1.07 m/s 201.55 Deg 5.03 µg/m3 1.42 µg/m3
2023-01-26 22:00 13.63 µg/m3 0.78 µg/m3 46.3 µg/m3 4.73 µg/m3 2.44 µg/m3 0.38 mg/m3 8.8 °C 80.7 % 1,005.87 mbar 1.29 m/s 215.75 Deg 6.32 µg/m3 2.29 µg/m3
2023-01-26 21:00 33.58 µg/m3 0.63 µg/m3 22.63 µg/m3 6.18 µg/m3 2.86 µg/m3 0.39 mg/m3 8.14 °C 88.05 % 1,006.01 mbar 0.78 m/s 208.93 Deg 14.38 µg/m3 1.91 µg/m3
2023-01-26 20:00 30.41 µg/m3 0.69 µg/m3 38.99 µg/m3 8.58 µg/m3 3.34 µg/m3 0.37 mg/m3 9.17 °C 83.97 % 1,005.77 mbar 0.66 m/s 236.33 Deg 13.81 µg/m3 1.5 µg/m3
2023-01-26 19:00 23.13 µg/m3 0.78 µg/m3 43.9 µg/m3 6.34 µg/m3 3.38 µg/m3 0.32 mg/m3 8.66 °C 87.78 % 1,005.82 mbar 2.11 m/s 216.35 Deg 10.4 µg/m3 1.99 µg/m3
2023-01-26 18:00 33.51 µg/m3 0.53 µg/m3 38.32 µg/m3 8.59 µg/m3 4.17 µg/m3 0.29 mg/m3 9.05 °C 85.56 % 1,005.61 mbar 1.46 m/s 177.56 Deg 15.88 µg/m3 1.65 µg/m3
2023-01-26 17:00 12.47 µg/m3 0.6 µg/m3 56.95 µg/m3 10.68 µg/m3 4.04 µg/m3 0.26 mg/m3 11.42 °C 66.61 % 1,005.13 mbar 4.75 m/s 259.2 Deg 5.71 µg/m3 1.42 µg/m3
2023-01-26 16:00 10.09 µg/m3 0.51 µg/m3 57.4 µg/m3 11.13 µg/m3 4.18 µg/m3 0.26 mg/m3 12.78 °C 60.13 % 1,005.18 mbar 5.8 m/s 264.38 Deg 4.92 µg/m3 1.18 µg/m3
2023-01-26 15:00 8.97 µg/m3 0.49 µg/m3 58.51 µg/m3 11.45 µg/m3 4.45 µg/m3 0.28 mg/m3 13.37 °C 59.39 % 1,005.27 mbar 6.68 m/s 257.98 Deg 5.54 µg/m3 1.26 µg/m3
2023-01-26 14:00 9.85 µg/m3 0.65 µg/m3 56.24 µg/m3 11.23 µg/m3 4.45 µg/m3 0.29 mg/m3 13.29 °C 58.01 % 1,005.76 mbar 6.23 m/s 257.55 Deg 5.19 µg/m3 1.15 µg/m3
2023-01-26 13:00 10.03 µg/m3 0.55 µg/m3 55.76 µg/m3 10.75 µg/m3 3.84 µg/m3 0.35 mg/m3 13.54 °C 55.99 % 1,006.38 mbar 5.91 m/s 257.1 Deg 5.37 µg/m3 1.15 µg/m3
2023-01-26 12:00 11.77 µg/m3 0.78 µg/m3 52.83 µg/m3 10.87 µg/m3 3.59 µg/m3 0.48 mg/m3 13.45 °C 56.03 % 1,007.44 mbar 4.55 m/s 273.33 Deg 7.82 µg/m3 1.31 µg/m3
2023-01-26 11:00 14.01 µg/m3 1.03 µg/m3 46.73 µg/m3 15.28 µg/m3 4.55 µg/m3 0.72 mg/m3 13.66 °C 57.55 % 1,008.01 mbar 4.55 m/s 269.87 Deg 10.44 µg/m3 1.91 µg/m3
2023-01-26 10:00 49.96 µg/m3 2.26 µg/m3 9.36 µg/m3 61.42 µg/m3 17.18 µg/m3 0.92 mg/m3 11.25 °C 77.64 % 1,008.04 mbar 0.5 m/s 210.84 Deg 85.08 µg/m3 5.46 µg/m3
2023-01-26 09:00 72.53 µg/m3 3.68 µg/m3 1.15 µg/m3 51.32 µg/m3 14.28 µg/m3 1.03 mg/m3 9.66 °C 79.1 % 1,007.98 mbar 0.07 m/s 200.16 Deg 237.6 µg/m3 5.44 µg/m3
2023-01-26 08:00 79.48 µg/m3 3.39 µg/m3 2.05 µg/m3 42.23 µg/m3 12.81 µg/m3 0.82 mg/m3 8.97 °C 80.04 % 1,008.08 mbar 0.13 m/s 166.11 Deg 204.73 µg/m3 6.54 µg/m3
2023-01-26 07:00 74.46 µg/m3 2.82 µg/m3 2.23 µg/m3 30.5 µg/m3 12.52 µg/m3 0.59 mg/m3 9.13 °C 79.52 % 1,008.32 mbar 0.45 m/s 217.93 Deg 197.26 µg/m3 5.04 µg/m3
2023-01-26 06:00 30.96 µg/m3 0.51 µg/m3 39.41 µg/m3 9.78 µg/m3 3.56 µg/m3 0.27 mg/m3 9.87 °C 75.54 % 1,008.63 mbar 1 m/s 213.15 Deg 25.51 µg/m3 0.86 µg/m3
2023-01-26 05:00 8.97 µg/m3 0.29 µg/m3 59.59 µg/m3 7.65 µg/m3 2.58 µg/m3 0.23 mg/m3 10.18 °C 77.71 % 1,009.02 mbar 1.03 m/s 260.98 Deg 1.19 µg/m3 0.76 µg/m3
2023-01-26 04:00 8.53 µg/m3 0.5 µg/m3 65.64 µg/m3 7.19 µg/m3 2.68 µg/m3 0.23 mg/m3 10.58 °C 78.77 % 1,009.45 mbar 1.68 m/s 317.63 Deg 0.39 µg/m3 0.76 µg/m3
2023-01-26 03:00 24.26 µg/m3 0.49 µg/m3 68.77 µg/m3 7.16 µg/m3 3.04 µg/m3 0.16 mg/m3 11.54 °C 75.66 % 1,009.60 mbar 4.44 m/s 311.61 Deg 0.3 µg/m3 0.73 µg/m3
2023-01-26 02:00 0.54 µg/m3 0.43 µg/m3 66.91 µg/m3 7.48 µg/m3 2.92 µg/m3 0.25 mg/m3 12.05 °C 67.62 % 1,009.93 mbar 4.89 m/s 248.19 Deg 0.7 µg/m3 0.73 µg/m3
2023-01-26 01:00 3.26 µg/m3 0.32 µg/m3 61.8 µg/m3 7.3 µg/m3 2.64 µg/m3 0.29 mg/m3 11.53 °C 65.21 % 1,010.46 mbar 3.04 m/s 221.28 Deg 1.14 µg/m3 0.76 µg/m3
2023-01-26 00:00 5.69 µg/m3 0.72 µg/m3 58.37 µg/m3 8.13 µg/m3 2.96 µg/m3 0.35 mg/m3 11.83 °C 64.07 % 1,011.17 mbar 3.05 m/s 226.33 Deg 1.74 µg/m3 1.21 µg/m3
2023-01-25 23:00 13.04 µg/m3 0.96 µg/m3 50.35 µg/m3 10.67 µg/m3 3.93 µg/m3 0.41 mg/m3 11.69 °C 70.47 % 1,011.82 mbar 2.06 m/s 218.65 Deg 2.97 µg/m3 1.52 µg/m3
2023-01-25 22:00 33.03 µg/m3 1.2 µg/m3 22.3 µg/m3 16.39 µg/m3 6.48 µg/m3 0.48 mg/m3 9.99 °C 79.6 % 1,012.41 mbar 0.6 m/s 226.97 Deg 17.49 µg/m3 2.8 µg/m3
2023-01-25 21:00 39.9 µg/m3 1.05 µg/m3 16.77 µg/m3 22.13 µg/m3 7.38 µg/m3 0.52 mg/m3 10.5 °C 75.81 % 1,012.77 mbar 0.66 m/s 252.11 Deg 24.71 µg/m3 2.6 µg/m3
2023-01-25 20:00 42.5 µg/m3 1.14 µg/m3 16.51 µg/m3 25.24 µg/m3 8.49 µg/m3 0.52 mg/m3 9.84 °C 77.89 % 1,013.03 mbar 0.9 m/s 226.86 Deg 28.42 µg/m3 3.08 µg/m3
2023-01-25 19:00 60.12 µg/m3 1.97 µg/m3 8.35 µg/m3 33.42 µg/m3 10.07 µg/m3 0.52 mg/m3 10.64 °C 75.32 % 1,013.13 mbar 0.53 m/s 229.53 Deg 76.3 µg/m3 4.95 µg/m3
2023-01-25 18:00 52.69 µg/m3 1.3 µg/m3 22.7 µg/m3 24.23 µg/m3 7.26 µg/m3 0.37 mg/m3 12.37 °C 67.84 % 1,013.06 mbar 0.59 m/s 212.58 Deg 56.67 µg/m3 2.39 µg/m3
2023-01-25 17:00 22.61 µg/m3 0.67 µg/m3 50.94 µg/m3 14.62 µg/m3 4.33 µg/m3 0.26 mg/m3 13.23 °C 63.36 % 1,013.16 mbar 1.29 m/s 293.74 Deg 6.41 µg/m3 1.23 µg/m3
2023-01-25 16:00 12.56 µg/m3 0.49 µg/m3 65.35 µg/m3 12.54 µg/m3 3.85 µg/m3 0.26 mg/m3 13.88 °C 60.93 % 1,013.30 mbar 2.59 m/s 292.38 Deg 5.4 µg/m3 0.92 µg/m3
2023-01-25 15:00 14.45 µg/m3 0.68 µg/m3 62.08 µg/m3 12.39 µg/m3 3.89 µg/m3 0.26 mg/m3 13.95 °C 62.68 % 1,013.42 mbar 2.52 m/s 276.83 Deg 6.24 µg/m3 0.94 µg/m3
2023-01-25 14:00 10.43 µg/m3 0.69 µg/m3 65.05 µg/m3 11.41 µg/m3 3.63 µg/m3 0.29 mg/m3 14.27 °C 63.21 % 1,013.84 mbar 2.66 m/s 289.89 Deg 4.43 µg/m3 1 µg/m3
2023-01-25 13:00 16.69 µg/m3 0.53 µg/m3 56.41 µg/m3 17.95 µg/m3 4.83 µg/m3 0.35 mg/m3 14.25 °C 66.82 % 1,014.65 mbar 2.99 m/s 266.29 Deg 9.32 µg/m3 1 µg/m3
2023-01-25 12:00 20.75 µg/m3 0.88 µg/m3 51.46 µg/m3 21.04 µg/m3 5.35 µg/m3 0.43 mg/m3 14.28 °C 65.57 % 1,015.49 mbar 2.03 m/s 241.58 Deg 10.65 µg/m3 1.05 µg/m3
2023-01-25 11:00 27.74 µg/m3 0.66 µg/m3 44.58 µg/m3 26.89 µg/m3 6.26 µg/m3 0.53 mg/m3 13.95 °C 67.12 % 1,016.05 mbar 0.99 m/s 276.23 Deg 24.52 µg/m3 1.21 µg/m3
2023-01-25 10:00 34.05 µg/m3 0.86 µg/m3 34.39 µg/m3 17.13 µg/m3 5.29 µg/m3 0.65 mg/m3 13.42 °C 72.2 % 1,016.13 mbar 0.69 m/s 305.9 Deg 20.05 µg/m3 2.83 µg/m3
2023-01-25 09:00 37.37 µg/m3 1.86 µg/m3 12.85 µg/m3 12.2 µg/m3 4.92 µg/m3 0.72 mg/m3 12 °C 78.75 % 1,015.71 mbar 0.88 m/s 232.37 Deg 49.46 µg/m3 3.78 µg/m3
2023-01-25 08:00 62.55 µg/m3 2.34 µg/m3 6.18 µg/m3 13.97 µg/m3 6.65 µg/m3 0.69 mg/m3 10.97 °C 81.78 % 1,015.36 mbar 0.64 m/s 218.01 Deg 150.26 µg/m3 4.65 µg/m3
2023-01-25 07:00 53.59 µg/m3 1.36 µg/m3 21.02 µg/m3 11.73 µg/m3 5.41 µg/m3 0.45 mg/m3 11.48 °C 80.57 % 1,015.34 mbar 1.12 m/s 207.11 Deg 74.82 µg/m3 2.57 µg/m3
2023-01-25 06:00 39.92 µg/m3 0.84 µg/m3 24.13 µg/m3 9.58 µg/m3 4.06 µg/m3 0.28 mg/m3 11.48 °C 82.56 % 1,015.57 mbar 0.86 m/s 218.1 Deg 43.79 µg/m3 0.98 µg/m3
2023-01-25 05:00 14.73 µg/m3 0.61 µg/m3 44.39 µg/m3 7.04 µg/m3 2.74 µg/m3 0.24 mg/m3 11.25 °C 83.44 % 1,015.66 mbar 1.21 m/s 222.6 Deg 5.7 µg/m3 0.82 µg/m3
2023-01-25 04:00 10.12 µg/m3 0.57 µg/m3 47.48 µg/m3 5.56 µg/m3 1.97 µg/m3 0.26 mg/m3 10.97 °C 89.45 % 1,015.77 mbar 1.11 m/s 229.93 Deg 1.43 µg/m3 0.65 µg/m3
2023-01-25 03:00 29.9 µg/m3 0.43 µg/m3 43.95 µg/m3 3.83 µg/m3 1.51 µg/m3 0.19 mg/m3 11.4 °C 89.33 % 1,016.03 mbar 1.09 m/s 172.63 Deg 1.45 µg/m3 0.65 µg/m3
2023-01-25 02:00 14.47 µg/m3 0.8 µg/m3 40.41 µg/m3 3.74 µg/m3 1.65 µg/m3 0.32 mg/m3 10.27 °C 91.56 % 1,016.27 mbar 1.14 m/s 184.63 Deg 1.1 µg/m3 1.08 µg/m3
2023-01-25 01:00 15.67 µg/m3 0.58 µg/m3 32.73 µg/m3 4.47 µg/m3 2.45 µg/m3 0.37 mg/m3 9.34 °C 93.25 % 1,016.81 mbar 0.54 m/s 275.33 Deg 3.19 µg/m3 1.39 µg/m3
2023-01-25 00:00 24.94 µg/m3 0.91 µg/m3 24.78 µg/m3 6.33 µg/m3 3.82 µg/m3 0.42 mg/m3 8.8 °C 93.23 % 1,017.33 mbar 0.43 m/s 194.04 Deg 8.88 µg/m3 1.92 µg/m3
2023-01-24 23:00 44.91 µg/m3 1.44 µg/m3 14.96 µg/m3 6.75 µg/m3 4.69 µg/m3 0.47 mg/m3 9.19 °C 90.86 % 1,017.81 mbar 0.4 m/s 168.06 Deg 14.05 µg/m3 2.52 µg/m3
2023-01-24 22:00 31.17 µg/m3 1.06 µg/m3 27.25 µg/m3 6.07 µg/m3 3.64 µg/m3 0.49 mg/m3 9.72 °C 88.94 % 1,018.03 mbar 0.83 m/s 190.64 Deg 13.91 µg/m3 2.47 µg/m3
2023-01-24 21:00 36.7 µg/m3 1.12 µg/m3 29.86 µg/m3 7.1 µg/m3 4.08 µg/m3 0.48 mg/m3 9.96 °C 86.98 % 1,017.72 mbar 0.45 m/s 204.67 Deg 13.06 µg/m3 2.2 µg/m3
2023-01-24 20:00 50.13 µg/m3 1.08 µg/m3 19.61 µg/m3 9.09 µg/m3 5.22 µg/m3 0.47 mg/m3 9.86 °C 88.49 % 1,018.10 mbar 0.4 m/s 227.8 Deg 18.99 µg/m3 2.52 µg/m3
2023-01-24 19:00 53.96 µg/m3 1.15 µg/m3 15.18 µg/m3 11.16 µg/m3 5.89 µg/m3 0.44 mg/m3 10.25 °C 91.45 % 1,018.60 mbar 0.79 m/s 195.15 Deg 17.38 µg/m3 2.71 µg/m3
2023-01-24 18:00 44.59 µg/m3 0.98 µg/m3 23.87 µg/m3 10.55 µg/m3 5.16 µg/m3 0.42 mg/m3 10.15 °C 93.62 % 1,018.81 mbar 0.88 m/s 160.07 Deg 27.46 µg/m3 1.91 µg/m3
2023-01-24 17:00 53.17 µg/m3 1.09 µg/m3 17.23 µg/m3 9.34 µg/m3 4.73 µg/m3 0.4 mg/m3 10.15 °C 89.9 % 1,019.30 mbar 0.61 m/s 177.01 Deg 29.29 µg/m3 2.02 µg/m3
2023-01-24 16:00 54.37 µg/m3 0.95 µg/m3 19.42 µg/m3 9.13 µg/m3 4.24 µg/m3 0.4 mg/m3 10.84 °C 82.29 % 1,019.47 mbar 0.9 m/s 208.73 Deg 37.15 µg/m3 2.17 µg/m3
2023-01-24 15:00 43.54 µg/m3 0.96 µg/m3 30.56 µg/m3 11.33 µg/m3 3.68 µg/m3 0.34 mg/m3 12.54 °C 71.26 % 1,019.13 mbar 0.88 m/s 262.7 Deg 15.93 µg/m3 23.81 µg/m3
2023-01-24 14:00 31.62 µg/m3 0.88 µg/m3 39.08 µg/m3 23.61 µg/m3 5.75 µg/m3 0.32 mg/m3 13.48 °C 63.01 % 1,018.81 mbar 1.17 m/s 186.57 Deg 13.71 µg/m3 47.82 µg/m3
2023-01-24 13:00 28.14 µg/m3 0.99 µg/m3 39.99 µg/m3 30.34 µg/m3 10.18 µg/m3 0.32 mg/m3 13.68 °C 63.28 % 1,019.33 mbar 1.66 m/s 256.99 Deg 13.04 µg/m3 98.68 µg/m3
2023-01-24 12:00 0 µg/m3 0.77 µg/m3 44.7 µg/m3 21.15 µg/m3 4.68 µg/m3 0.36 mg/m3 14.44 °C 59.69 % 1,020.28 mbar 1.8 m/s 161.46 Deg 0 µg/m3 89.79 µg/m3
2023-01-24 11:00 0 µg/m3 1.01 µg/m3 36.11 µg/m3 18.06 µg/m3 4.23 µg/m3 0.52 mg/m3 13.63 °C 65.09 % 1,021.22 mbar 1.12 m/s 306.06 Deg 0 µg/m3 70.18 µg/m3
2023-01-24 10:00 0 µg/m3 0 µg/m3 0 µg/m3 21.9 µg/m3 6.79 µg/m3 0 mg/m3 13.24 °C 67.16 % 1,021.50 mbar 0.84 m/s 224.02 Deg 0 µg/m3 45.93 µg/m3
2023-01-24 09:00 72.22 µg/m3 1.36 µg/m3 11.94 µg/m3 14.17 µg/m3 8.32 µg/m3 0.77 mg/m3 11.18 °C 73.52 % 1,021.42 mbar 0.12 m/s 213.78 Deg 66.65 µg/m3 45.56 µg/m3
2023-01-24 08:00 50.72 µg/m3 1.53 µg/m3 20.72 µg/m3 7.37 µg/m3 3.56 µg/m3 0.72 mg/m3 10.5 °C 73.81 % 1,021.14 mbar 1.41 m/s 197.2 Deg 44.93 µg/m3 27.71 µg/m3
2023-01-24 07:00 56.87 µg/m3 3.08 µg/m3 1.86 µg/m3 31.48 µg/m3 13.16 µg/m3 0.77 mg/m3 9.52 °C 74.23 % 1,020.79 mbar 0.52 m/s 197.46 Deg 157.87 µg/m3 12.07 µg/m3
2023-01-24 06:00 51.15 µg/m3 1.5 µg/m3 9.03 µg/m3 10.8 µg/m3 3.96 µg/m3 0.41 mg/m3 9.12 °C 75.48 % 1,020.83 mbar 0.06 m/s 184.67 Deg 78.72 µg/m3 1.42 µg/m3
2023-01-24 05:00 28.43 µg/m3 0.74 µg/m3 28.46 µg/m3 4.85 µg/m3 2.04 µg/m3 0.29 mg/m3 8.38 °C 76.96 % 1,020.87 mbar 0.49 m/s 257.63 Deg 15.55 µg/m3 0.89 µg/m3
2023-01-24 04:00 14.43 µg/m3 0.67 µg/m3 46.17 µg/m3 3.24 µg/m3 1.43 µg/m3 0.25 mg/m3 9.12 °C 75.52 % 1,021.07 mbar 0.39 m/s 146.16 Deg 1.53 µg/m3 0.82 µg/m3
2023-01-24 03:00 25.32 µg/m3 0.39 µg/m3 43.72 µg/m3 3.29 µg/m3 1.51 µg/m3 0.18 mg/m3 8.8 °C 73.33 % 1,021.36 mbar 0.86 m/s 242.02 Deg 1.89 µg/m3 0.84 µg/m3
2023-01-24 02:00 11.2 µg/m3 0.47 µg/m3 40.58 µg/m3 3.88 µg/m3 1.66 µg/m3 0.31 mg/m3 8.28 °C 71.24 % 1,021.23 mbar 0.29 m/s 279.49 Deg 2 µg/m3 0.84 µg/m3
2023-01-24 01:00 29.48 µg/m3 0.83 µg/m3 23.73 µg/m3 5.06 µg/m3 2.13 µg/m3 0.34 mg/m3 8.38 °C 70.37 % 1,020.99 mbar 0.03 m/s 211.94 Deg 8.26 µg/m3 1.29 µg/m3
2023-01-24 00:00 32.34 µg/m3 0.74 µg/m3 27.55 µg/m3 7.45 µg/m3 2.81 µg/m3 0.39 mg/m3 8.72 °C 68.08 % 1,021.00 mbar 0.2 m/s 288.74 Deg 12.71 µg/m3 1.18 µg/m3
2023-01-23 23:00 19.4 µg/m3 0.93 µg/m3 39.82 µg/m3 7.4 µg/m3 4.01 µg/m3 0.4 mg/m3 8.65 °C 67.81 % 1,021.07 mbar 1.02 m/s 246.08 Deg 6.88 µg/m3 1.73 µg/m3
2023-01-23 22:00 23.24 µg/m3 1.13 µg/m3 38.49 µg/m3 8.74 µg/m3 4.2 µg/m3 0.44 mg/m3 9.71 °C 62.22 % 1,020.82 mbar 0.83 m/s 227.85 Deg 14.1 µg/m3 2.31 µg/m3
2023-01-23 21:00 32.79 µg/m3 1.04 µg/m3 32.27 µg/m3 11.15 µg/m3 4.7 µg/m3 0.45 mg/m3 9.66 °C 62.52 % 1,020.29 mbar 0.74 m/s 227.23 Deg 17.37 µg/m3 1.94 µg/m3
2023-01-23 20:00 39.74 µg/m3 1.31 µg/m3 25.64 µg/m3 16.44 µg/m3 6.56 µg/m3 0.44 mg/m3 9.41 °C 66.19 % 1,019.78 mbar 1.09 m/s 232.29 Deg 19.42 µg/m3 3.15 µg/m3
2023-01-23 19:00 42.48 µg/m3 1.24 µg/m3 19.87 µg/m3 30.74 µg/m3 12.52 µg/m3 0.44 mg/m3 9.52 °C 68.32 % 1,019.34 mbar 0.84 m/s 250.24 Deg 21.49 µg/m3 3.31 µg/m3
2023-01-23 18:00 56.85 µg/m3 1.68 µg/m3 9.15 µg/m3 63.18 µg/m3 34.29 µg/m3 0.43 mg/m3 11.21 °C 64.19 % 1,018.88 mbar 0.8 m/s 201.34 Deg 51 µg/m3 4.04 µg/m3
2023-01-23 17:00 34.9 µg/m3 0.82 µg/m3 35.05 µg/m3 21.22 µg/m3 5.21 µg/m3 0.28 mg/m3 13.2 °C 56.14 % 1,018.58 mbar 1.94 m/s 229.48 Deg 16.38 µg/m3 1.45 µg/m3
2023-01-23 16:00 22.57 µg/m3 0.58 µg/m3 49 µg/m3 16.67 µg/m3 3.74 µg/m3 0.25 mg/m3 13.71 °C 53.25 % 1,018.24 mbar 2.79 m/s 255.12 Deg 10.63 µg/m3 1.05 µg/m3
2023-01-23 15:00 17.25 µg/m3 0.67 µg/m3 52.51 µg/m3 19.95 µg/m3 4.14 µg/m3 0.25 mg/m3 13.85 °C 52.59 % 1,017.73 mbar 3.68 m/s 244.74 Deg 8.67 µg/m3 1.1 µg/m3
2023-01-23 14:00 14.3 µg/m3 0.7 µg/m3 52.53 µg/m3 11.28 µg/m3 2.52 µg/m3 0.26 mg/m3 13.71 °C 59.69 % 1,017.58 mbar 3.08 m/s 261.03 Deg 7.58 µg/m3 27.96 µg/m3
2023-01-23 13:00 19.35 µg/m3 0.64 µg/m3 48.58 µg/m3 3.55 µg/m3 1.53 µg/m3 0.27 mg/m3 12.6 °C 60.2 % 1,017.76 mbar 2.91 m/s 245.61 Deg 11.1 µg/m3 17.74 µg/m3
2023-01-23 12:00 17.53 µg/m3 0.62 µg/m3 48.9 µg/m3 10.19 µg/m3 2.59 µg/m3 0.28 mg/m3 12.94 °C 60.76 % 1,017.89 mbar 3.55 m/s 269.03 Deg 10.97 µg/m3 0.81 µg/m3
2023-01-23 11:00 20.56 µg/m3 0.94 µg/m3 43.25 µg/m3 16.33 µg/m3 3.31 µg/m3 0.34 mg/m3 13.49 °C 55.3 % 1,017.87 mbar 3.1 m/s 239.38 Deg 13.48 µg/m3 1.07 µg/m3
2023-01-23 10:00 0 µg/m3 0.9 µg/m3 35.54 µg/m3 16.86 µg/m3 3.72 µg/m3 0 mg/m3 12.83 °C 56.31 % 1,017.55 mbar 2.82 m/s 246.55 Deg 0 µg/m3 1.36 µg/m3
2023-01-23 09:00 0 µg/m3 1.18 µg/m3 24.17 µg/m3 12.68 µg/m3 3.86 µg/m3 0 mg/m3 11.43 °C 59.59 % 1,016.79 mbar 2.36 m/s 230.44 Deg 0 µg/m3 2.71 µg/m3
2023-01-23 08:00 0 µg/m3 1.63 µg/m3 15.77 µg/m3 13.07 µg/m3 4.71 µg/m3 0.64 mg/m3 10.25 °C 66.4 % 1,016.11 mbar 1.42 m/s 225.38 Deg 0 µg/m3 3.31 µg/m3
2023-01-23 07:00 38.11 µg/m3 1.21 µg/m3 21.91 µg/m3 9.48 µg/m3 4.36 µg/m3 0.44 mg/m3 9.99 °C 69.32 % 1,015.73 mbar 1.58 m/s 227.08 Deg 36.71 µg/m3 2.2 µg/m3
2023-01-23 06:00 20.88 µg/m3 0.51 µg/m3 44.33 µg/m3 5.62 µg/m3 2.11 µg/m3 0.23 mg/m3 9.76 °C 70.79 % 1,015.32 mbar 2 m/s 257.91 Deg 8.6 µg/m3 0.86 µg/m3
2023-01-23 05:00 5.44 µg/m3 0.39 µg/m3 63.28 µg/m3 6.1 µg/m3 2.08 µg/m3 0.2 mg/m3 10.18 °C 70.84 % 1,014.96 mbar 2.57 m/s 306.53 Deg 0.34 µg/m3 0.73 µg/m3
2023-01-23 04:00 6.63 µg/m3 0.3 µg/m3 61.64 µg/m3 3.7 µg/m3 1.59 µg/m3 0.2 mg/m3 10.68 °C 62.04 % 1,014.81 mbar 3.94 m/s 261.99 Deg 0.07 µg/m3 0.73 µg/m3
2023-01-23 03:00 20.68 µg/m3 0.35 µg/m3 63.19 µg/m3 3.97 µg/m3 1.58 µg/m3 0.13 mg/m3 10.44 °C 66.14 % 1,014.82 mbar 3.16 m/s 266.25 Deg 0.03 µg/m3 0.76 µg/m3

It is to be noted that the data is provisional and subject to quality assurance procedures. For validated data kindly refer your request to contact.air@era.org.mt